Jewett, Wisconsin
Current Conditions -  °F | °C
As of 1:55 PM on Sunday 23 Nov 2014 (Local Time) from KRNH Reporting Station
Moderate Fog Moderate Fog  
Wind Chill: 45°   Ceiling: 100
Heat Index: 45°   Visibility: 0mi
Dew Point: 45°   Wind: 3mph
Humidity: 100%   Direction: 310°NW
Pressure: 29.38"   Gusts: NA
Location:  45.1804°N, 92.551°W
Report Text: KRNH 231955Z AUTO 31003KT M1/4SM FG OVC001 07/07 A2938 RMK AO2 T00710071
Loading
Personal Weather Stations






























Interactive Weather Map New forecast layout! Learn more

10-Day Weather Forecast

Advertisements
Track Severe Weather on mobile